Location: Mountain Grove
(34.0887°N, 86.6172°W)
Time: 21:47:37
(UTC+00:00)

Cosmos 1140 Rocket - Visible Passes

Search period start: 23 October 2020 00:00
Search period end: 02 November 2020 00:00
Orbit: 745 x 766 km, 74.1° (Epoch: 22 October)

Date Brightness Start Highest point End Pass type
(mag) Time Alt. Az. Time Alt. Az. Time Alt. Az.
23 Oct 7.2 00:23:26 10° W 00:24:04 10° W 00:24:43 10° W visible
23 Oct 5.7 11:27:52 10° SSE 11:32:20 31° E 11:36:49 10° NE visible
23 Oct 6.4 23:39:51 10° NW 23:43:43 22° W 23:47:35 10° SSW visible
24 Oct 6.7 10:48:58 10° SE 10:51:56 15° E 10:54:52 10° ENE visible
26 Oct 4.9 11:07:07 10° S 11:11:55 42° ESE 11:16:45 10° NNE visible
26 Oct 6.7 23:20:14 10° WNW 23:23:15 16° W 23:26:17 10° SW visible
27 Oct 6.1 10:27:38 10° SE 10:31:27 21° E 10:35:16 10° NE visible
28 Oct 3.4 11:27:04 10° SSW 11:32:11 70° WNW 11:37:18 10° NNE visible
29 Oct 4.1 10:46:31 10° S 10:51:32 59° ESE 10:56:34 10° NNE visible
30 Oct 5.4 10:06:39 10° SSE 10:11:01 29° E 10:15:23 10° NE visible
31 Oct 6.4 09:27:54 10° SE 09:30:36 14° E 09:33:18 10° ENE visible
31 Oct 3.6 11:06:54 10° SW 11:11:52 50° WNW 11:16:51 10° N visible
01 Nov 3.5 10:26:03 10° SSW 10:31:10 81° ESE 10:36:18 10° NNE visible
